Weather History for KHEI - February, 2014

Change the Weather History Date:

Wednesday, February 5, 2014

  Actual Average Record
Temperature  
Mean Temperature -10 °F -  
Max Temperature -1 °F 30 °F 51 °F (2012)
Min Temperature -19 °F 8 °F -19 °F (2014)
Degree Days  
Heating Degree Days 75 46  
Month to date heating degree days 325 233  
Since 1 July heating degree days 5514 5309  
Moisture  
Dew Point -15 °F    
Average Humidity 73    
Maximum Humidity 83    
Minimum Humidity 65    
Precipitation  
Precipitation T in 0.02 in 0.04 in (2011)
Month to date precipitation T 0.10  
Year to date precipitation 0.14 0.41  
Sea Level Pressure  
Sea Level Pressure 30.74 in    
Wind  
Wind Speed 12 mph (WNW)    
Max Wind Speed 23 mph    
Max Gust Speed 27 mph    
Visibility 10 miles    
Events      
T = Trace of Precipitation, MM = Missing Value Source: NWS Daily Summary

Daily Weather History Graph

Daily Weather History Graph

Search for Another Location

Airport or City:

Trip Planner

Search our weather history database for the weather conditions in past years. The results will help you decide how hot, cold, wet, or windy it might be!

Date:

Astronomy

Feb. 05, 2014 Rise Set
Actual Time 7:07 AM MST 5:02 PM MST
Civil Twilight 6:36 AM MST 5:33 PM MST
Nautical Twilight 6:00 AM MST 6:09 PM MST
Astronomical Twilight 5:25 AM MST 6:44 PM MST
Moon 10:00 AM MST (2/5) No Moon Set
Length of Visible Light 10h 57m
Length of Day
9h 54m
Waxing Crescent, 40% of the Moon is Illuminated
Feb 5
Waxing Crescent
Feb 6
First Quarter
Feb 14
Full
Feb 22
Last Quarter
Mar 1
New

Hourly Weather History & Observations

Time (MST) Temp. Windchill Dew Point Humidity Pressure Visibility Wind Dir Wind Speed Gust Speed Precip Events Conditions
12:53 AM -7.1 °F -22.8 °F -11.9 °F 79% 30.76 in 7.0 mi WNW 8.1 mph - 0.00 in   Overcast
1:53 AM -6.0 °F -16.9 °F -11.0 °F 79% 30.76 in 6.0 mi WNW 4.6 mph - N/A   Haze
2:53 AM -9.9 °F -23.4 °F -15.0 °F 78% 30.78 in 7.0 mi WNW 5.8 mph - 0.00 in   Overcast
3:53 AM -9.9 °F -26.3 °F -15.0 °F 78% 30.79 in 10.0 mi WNW 8.1 mph - 0.00 in   Overcast
4:53 AM -11.9 °F -28.7 °F -17.0 °F 78% 30.80 in 10.0 mi NW 8.1 mph - 0.00 in   Clear
5:53 AM -17.0 °F -33.4 °F -22.0 °F 78% 30.81 in 10.0 mi NW 6.9 mph - N/A   Clear
6:53 AM -18.0 °F -36.1 °F -22.0 °F 82% 30.81 in 10.0 mi WNW 8.1 mph - N/A   Clear
7:53 AM -15.0 °F -31.0 °F -20.0 °F 78% 30.82 in 10.0 mi WNW 6.9 mph - N/A   Clear
8:53 AM -9.9 °F -30.5 °F -16.1 °F 74% 30.82 in 10.0 mi West 12.7 mph - N/A   Clear
9:53 AM -7.1 °F -26.8 °F -13.0 °F 75% 30.83 in 10.0 mi WNW 12.7 mph - N/A   Clear
10:22 AM -5.1 °F -25.9 °F -11.9 °F 72% 30.58 in 10.0 mi WNW 15.0 mph - N/A   Scattered Clouds
10:32 AM -5.1 °F -25.9 °F -11.9 °F 72% 30.58 in 10.0 mi WNW 15.0 mph - N/A   Mostly Cloudy
10:53 AM -5.1 °F -28.4 °F -13.0 °F 69% 30.82 in 10.0 mi WNW 19.6 mph - N/A   Mostly Cloudy
11:02 AM -5.1 °F -27.8 °F -13.0 °F 69% 30.57 in 10.0 mi WNW 18.4 mph - N/A   Scattered Clouds
11:53 AM -2.9 °F -26.1 °F -11.9 °F 65% 30.80 in 10.0 mi WNW 20.7 mph - N/A   Clear
12:21 PM -2.9 °F -26.1 °F -11.9 °F 65% 30.55 in 10.0 mi WNW 20.7 mph - N/A   Mostly Cloudy
12:42 PM -2.0 °F -25.0 °F -11.9 °F 63% 30.54 in 10.0 mi WNW 20.7 mph - N/A   Scattered Clouds
12:53 PM -2.0 °F -23.9 °F -11.0 °F 66% 30.77 in 10.0 mi WNW 18.4 mph - N/A   Clear
1:53 PM -2.0 °F -23.9 °F -11.0 °F 66% 30.75 in 10.0 mi WNW 18.4 mph - N/A   Clear
2:53 PM -2.0 °F -23.9 °F -11.0 °F 66% 30.76 in 10.0 mi WNW 18.4 mph - N/A   Clear
3:53 PM -2.9 °F -24.4 °F -11.9 °F 65% 30.76 in 10.0 mi WNW 17.3 mph - N/A   Clear
4:53 PM -5.1 °F -25.9 °F -13.0 °F 69% 30.76 in 10.0 mi WNW 15.0 mph - N/A   Clear
5:53 PM -11.9 °F -31.0 °F -17.0 °F 78% 30.79 in 10.0 mi West 10.4 mph - N/A   Clear
6:53 PM -11.0 °F -29.9 °F -17.0 °F 75% 30.78 in 10.0 mi WNW 10.4 mph - N/A   Clear
7:53 PM -11.9 °F -32.0 °F -18.0 °F 74% 30.78 in 10.0 mi West 11.5 mph - N/A   Clear
8:53 PM -11.9 °F -34.6 °F -17.0 °F 78% 30.76 in 10.0 mi WNW 15.0 mph - N/A   Clear
9:53 PM -13.0 °F -34.3 °F -18.9 °F 75% 30.74 in 10.0 mi West 12.7 mph - N/A   Clear
10:53 PM -14.1 °F -37.4 °F -20.0 °F 75% 30.70 in 10.0 mi West 15.0 mph - N/A   Clear
11:53 PM -14.1 °F -35.7 °F -18.9 °F 79% 30.69 in 10.0 mi West 12.7 mph - N/A   Clear